Location: Aurora Center
(43.5271°N, 98.5894°W)
Time: 01:28:52
(UTC-05:00)

BlueWalker 3 - Pass Details

Date: 21 June 2024
Orbit: 480 x 492 km, 53.2° (Epoch: 15 July)

Event Time Altitude Azimuth Distance (km) Brightness Sun altitude
Rises 23:23:26 0° 271° (W) 2,537 6.0 -16.4°
Reaches altitude 10° 23:25:52 10° 285° (WNW) 1,657 5.2 -16.6°
Maximum altitude 23:29:01 25° 342° (NNW) 1,003 4.3 -16.9°
Drops below altitude 10° 23:32:10 10° 40° (NE) 1,658 4.8 -17.2°
Sets 23:34:36 0° 54° (NE) 2,539 5.6 -17.4°
